International Virtual Aviation Organisation

Eastern Europe and Northern Asia MCD

 

Карточка аэропорта UNBB

Внимание!
Информация на этой странице в стадии наполнения.
Если вы не увидели какой-то информации, или заметили неточность - пожалуйста сообщите нам!
Спасибо!
Команда RU-STAFF
Название аэропортаМихайловка
Название аэропорта (англ.)Mikhaylovka
Превышение837 ft. (255.1 m.)
Координаты53°21.798', 83°32.382'
Высота перехода700m
Эшелон переходаFL050
Коды ответчика5301-5307
Зона ОрВДНовосибирск РПИ (UNNT)
Данные METARUNBB 131900Z 28005MPS CAVOK 01/M07 Q1032 R24/CLRD66 NOSIG RMK QFE751
Проноз погоды (TAF)UNBB 131700Z 1318/1418 27003G08MPS CAVOK TEMPO 1320/1403 0350 FZFG SCT002 BECMG 1404/1405 25005G12MPS BKN040
NOTAMshow/hide NOTAM
AWOS   TABLE

Информация о ВПП

ВПП Длина ВПП (м.) Покрытие Курс ВПП Частота ILS
242853Асфальтобетон239108.7
062853Асфальтобетон59 

Диспетчерские позиции




Спутниковое изображение